OPS 4682 DEB, 38380

Orbit data source: Space-Track

OPS 4682 DEB, 38380 is space debris in LEO originally from a launch on Sat, 03 Apr 1965 UTC launched from the Air Force Western Test Range (AFWTR). Debris objects in space refer to the collection of defunct objects orbiting the Earth. Examples of debris include non-operational satellites, rocket bodies, and fragments generated from explosions, collisions, or faulty payload assembly.

Loading next visibility...
Identifier
38380, 1965-027CH
Orbit
LEO
Country
Flag of USUS
Related business
Manufacturer
Unknown
Mission
Spacecraft
Bus & Motor
Unknown
Mass
Unknown
Launch date (UTC)
1965-04-03 (61 years ago)
Launch vehicle
Unknown
Launch site
Air Force Western Test Range (AFWTR)
Object type
Payload
Rocket body
Debris
Shape & HBR
Unknown shape, 0.1 m
Radar Cross Section
Small (<0.1 m²)

Expand to show TLE details & history
Last TLE update: 2 days ago

TLE from 2 days ago
0 OPS 4682 DEB
1 38380U 65027CH  26102.58390335  .00001129  00000-0  37325-2 0  9994
2 38380  90.2615 319.7142 0023545 128.6811 231.6422 12.99806583569090
Epoch: 2026-04-12T14:00Z
TLE epoch observation values (Epoch: 2026-04-12T14:00:49.249Z)
Latitude
-0.00002°
Longitude
-91.27777°
Altitude
1,276.921 km
Speed
7.212 km/s
True Right ascension
21h 18m 51s
True Declination
0° 00' 00"
Sunlit
Object was in daylight at epoch
Visualization orbit readout
Latitude
Unknown
Longitude
Unknown
Altitude
Unknown
Speed
Unknown
Apparent Right ascension
Unknown
Apparent Declination
Unknown
Sunlit
N/A
Visualization observer readout
Local Sidereal Time
15:47:34
Azimuth
Unknown
Elevation
Unknown
Doppler factor
Unknown
Orbital elements
Apogee altitude
1,277.956 km
Perigee altitude
1,241.988 km
Semi-major axis
7,638.109 km
Eccentricity
0.00235
Inclination
90.2615°
RAAN
319.7142°
Arg. of periapsis
128.6811°
True anomaly
231.43102°
Mean anomaly
231.6422°
Eccentric anomaly
231.53657°
Mean motion
3.25136 °/min
Orbital period
110.72 mins
BSTAR
0.0037325
Loading maneuver chart data...
Computing Atmospheric mass density...
Loading historical data...
Loading historical data...
Loading historical data...
Loading historical data...
Loading historical data...
Loading historical data...
Loading historical data...

Documentation

Showing up to 5 results
|